Flag for U.S.A. Weather past 2 weeks in Kansas City, Missouri, U.S.A.

Now
48 °F

Sunny.


Feels Like: 47 °F
Forecast: 35 / 68 °F
Wind: 3 mph from East

Location: Kansas City Downtown Airport


UV Index: 5 (Moderate)

Visibility: 10 mi


Pressure: 30.28 "Hg

Humidity: 54%

Dew point: 32 °F

Location of Kansas CityLocation

Historic Weather in Kansas City

°F

Kansas City temperature yesterday

Maximum temperature yesterday: 66 °F (at 2:54 PM)
Minimum temperature yesterday: 46 °F (at 6:54 AM)
Average temperature yesterday: 56 °F

Past Weeks' High & Low Weather Summary

 TemperatureHumidityPressure
High84 °F (Apr 12, 3:54 PM)93% (Apr 2, 6:54 PM)30.33 "Hg (Apr 2, 6:54 PM)
Low32 °F (Apr 14, 8:54 AM)19% (Apr 11, 11:54 AM)29.44 "Hg (Apr 13, 5:59 PM)
Average54 °F54%29.91 "Hg
* Reported Apr 2 6:54 PM — Apr 17 6:54 PM, Kansas City, Weather by CustomWeather, © 2014

Note: Actual official high and low records may vary slightly from our data, if they occured in-between our weather recording intervals... More about our weather records

Advertising

Historic Weather Conditions — Data for Previous 24 hours

 ConditionsComfort  
Time TempWeatherWind HumidityBarometerVisibility
6:54 PM
Apr 17
50 °FSunny.No wind50%30.27 "Hg10 mi
5:54 PM50 °FPassing clouds.No wind52%30.28 "Hg10 mi
4:54 PM49 °FSunny.3 mph55%30.28 "Hg10 mi
3:54 PM47 °FPassing clouds.No wind56%30.29 "Hg10 mi
2:54 PM47 °FSunny.No wind56%30.30 "Hg10 mi
1:54 PM44 °FPartly sunny.5 mph60%30.31 "Hg10 mi
12:54 PM44 °FPartly sunny.6 mph60%30.31 "Hg10 mi
11:54 AM43 °FPartly sunny.6 mph62%30.33 "Hg10 mi
10:54 AM42 °FOvercast.12 mph62%30.30 "Hg10 mi
9:54 AM41 °FOvercast.10 mph65%30.29 "Hg10 mi
8:54 AM40 °FOvercast.9 mph68%30.29 "Hg10 mi
7:54 AM40 °FPartly sunny.12 mph68%30.25 "Hg7 mi
6:54 AM41 °FOvercast.7 mph67%30.22 "Hg10 mi
5:54 AM41 °FOvercast.9 mph67%30.19 "Hg10 mi
4:54 AM41 °FPassing clouds.7 mph67%30.18 "Hg10 mi
3:54 AM41 °FClear.6 mph67%30.14 "Hg10 mi
2:54 AM42 °FClear.6 mph65%30.13 "Hg10 mi
1:54 AM43 °FClear.9 mph65%30.12 "Hg10 mi
12:54 AM45 °FClear.10 mph63%30.09 "Hg10 mi
11:54 PM
Apr 16
49 °FClear.12 mph55%30.06 "Hg10 mi
10:54 PM55 °FClear.15 mph49%30.00 "Hg10 mi
9:54 PM59 °FClear.9 mph36%29.97 "Hg10 mi
8:54 PM60 °FSunny.15 mph35%29.89 "Hg10 mi
Weather by CustomWeather, © 2014

See weather overview